(344530) = 2002 TZ163

Discovered at Palomar on 2002-10-05 by NEAT.

Orbit

Orbit type: Main Belt

Note: WebGL enabled browser required.

epoch2024-03-31.0
epoch JD2460400.5
perihelion date2021-08-04.80362
perihelion JD2459431.30362
argument of perihelion (°)263.92317
ascending node (°)90.57063
inclination (°)15.80411
eccentricity0.1731851
perihelion distance (AU)2.3510447
Tisserand w.r.t. Jupiter3.2
ΔV w.r.t. Earth (km/sec)10.8
semimajor axis (AU)2.8434956
mean anomaly (°)199.22177
mean daily motion (°/day)0.20555360
aphelion distance (AU)3.336
period (years)4.79
P-vector [x]0.95779856
P-vector [y]0.01934649
P-vector [z]-0.28678849
Q-vector [x]0.09195195
Q-vector [y]0.92468055
Q-vector [z]0.36947358
absolute magnitude15.57
phase slope0.15
uncertainty0
referenceMPEC 2024-D82
observations used543
oppositions14
arc length (days)7807
first opposition used2002
last opposition used2024
residual rms (arc-secs)0.74
perturbers coarse indicatorM-v
perturbers precise indicator003Ek
first observation date used2002-10-05.0
last observation date used2024-02-19.0
computer nameMPCLINUX
JD of orbit computation2456256.057672
perihelion JD uncertainty (days)3.0269E-04
argument of perihelion uncertainty (°)8.0081E-05
ascending node uncertainty (°)5.3030E-05
inclination uncertainty (°)1.7120E-05
eccentricity uncertainty 1.2511E-07
perihelion distance uncertainty (AU)3.5582E-07
Minimum Orbit Intersection Distances (in AU)
for orbit epoch: 2460400.5, reference: E2024-GF4
Mercury1.97723
Venus1.64805
Earth1.40861
Mars1.06177
Jupiter2.24404
Saturn6.05856
Uranus15.2399
Neptune27.1484

Observations

547 total observations over interval: 2002 10 05.44605 – 2024 02 19.510147
These data are available for download (format description).

Date (UT) J2000 RA J2000 Dec Magn Location Ref
2002 10 05.44605 03 18 59.64 -03 44 03.6 19.8   644 – Palomar Mountain/NEAT MPS 64104
2002 10 05.45652 03 18 59.34 -03 44 05.9 19.1   644 – Palomar Mountain/NEAT MPS 64104
2002 10 05.46708 03 18 59.06 -03 44 07.0 19.4   644 – Palomar Mountain/NEAT MPS 64104
2002 10 06.45113 03 18 31.37 -03 47 26.2 19.2   644 – Palomar Mountain/NEAT MPS 64104
2002 10 06.46170 03 18 31.07 -03 47 28.2 19.4   644 – Palomar Mountain/NEAT MPS 64104
2002 10 06.47221 03 18 30.79 -03 47 30.2 19.6   644 – Palomar Mountain/NEAT MPS 64104
2002 10 10.44213 03 16 22.85 -04 00 06.0 18.8   644 – Palomar Mountain/NEAT MPS 125660
2002 10 10.45272 03 16 22.47 -04 00 08.1 18.9   644 – Palomar Mountain/NEAT MPS 125660
2002 10 10.46310 03 16 22.05 -04 00 09.9 19.0   644 – Palomar Mountain/NEAT MPS 125660
2002 10 30.25940 03 00 36.46 -04 33 26.0 19.2   704 – Lincoln Laboratory ETS, New Mexico MPS 155825
2002 10 30.27688 03 00 35.51 -04 33 24.6 19.2   704 – Lincoln Laboratory ETS, New Mexico MPS 155825
2002 10 30.29425 03 00 34.49 -04 33 26.2 18.6   704 – Lincoln Laboratory ETS, New Mexico MPS 155825
2002 10 30.31170 03 00 33.52 -04 33 25.6 19.4   704 – Lincoln Laboratory ETS, New Mexico MPS 155825
2002 10 30.32918 03 00 32.43 -04 33 25.2 19.0   704 – Lincoln Laboratory ETS, New Mexico MPS 155825
2002 11 06.33724 02 53 48.86 -04 28 01.5 18.6   644 – Palomar Mountain/NEAT MPS 155825
2002 11 06.35849 02 53 47.58 -04 27 59.5 18.7   644 – Palomar Mountain/NEAT MPS 155825
2002 11 06.37960 02 53 46.32 -04 27 57.4 18.6   644 – Palomar Mountain/NEAT MPS 155825
2002 11 22.27781 02 39 21.90 -03 34 40.5 19.2   644 – Palomar Mountain/NEAT MPS 155825
2002 11 22.29810 02 39 20.87 -03 34 34.1 19.1   644 – Palomar Mountain/NEAT MPS 155825
2002 11 22.31957 02 39 19.82 -03 34 27.6 19.2   644 – Palomar Mountain/NEAT MPS 155825
2002 12 07.17690 02 29 48.09 -01 57 19.7 20.3   644 – Palomar Mountain/NEAT MPS 155825
2002 12 07.19671 02 29 47.50 -01 57 10.4 19.5   644 – Palomar Mountain/NEAT MPS 155825
2002 12 07.21818 02 29 46.87 -01 57 00.1 19.7   644 – Palomar Mountain/NEAT MPS 155825
2007 09 13.44191 04 40 29.92 +08 39 53.7 20.1 V 703 – Catalina Sky Survey MPS 223369
2007 09 13.44911 04 40 30.25 +08 39 53.1 20.1 V 703 – Catalina Sky Survey MPS 223369
2007 09 13.45625 04 40 30.54 +08 39 54.6 20.4 V 703 – Catalina Sky Survey MPS 223369
2007 09 13.46340 04 40 30.82 +08 39 54.2 19.9 V 703 – Catalina Sky Survey MPS 223369
2007 10 24.41888 04 46 50.70 +08 47 41.4 19.0 V G96 – Mt. Lemmon Survey MPS 223369
2007 10 24.42999 04 46 50.41 +08 47 41.7 19.3 V G96 – Mt. Lemmon Survey MPS 223369
2007 10 24.44110 04 46 50.08 +08 47 42.2 19.4 V G96 – Mt. Lemmon Survey MPS 223369
2007 10 24.45215 04 46 49.76 +08 47 42.6 19.3 V G96 – Mt. Lemmon Survey MPS 223369
2007 10 25.48020 04 46 21.93 +08 48 19.7 19.6 V G96 – Mt. Lemmon Survey MPS 223369
2007 10 25.49019 04 46 21.61 +08 48 20.1 19.3 V G96 – Mt. Lemmon Survey MPS 223369
2007 10 25.50036 04 46 21.32 +08 48 20.6 19.1 V G96 – Mt. Lemmon Survey MPS 223369
2007 10 25.51056 04 46 21.03 +08 48 20.9 19.3 V G96 – Mt. Lemmon Survey MPS 223369
2007 11 02.48052 04 41 45.60 +08 55 22.6 19.1 V 703 – Catalina Sky Survey MPS 224714
2007 11 02.48715 04 41 45.31 +08 55 22.1 19.1 V 703 – Catalina Sky Survey MPS 224714
2007 11 02.49383 04 41 45.06 +08 55 23.5 19.5 V 703 – Catalina Sky Survey MPS 224714
2007 11 02.50046 04 41 44.77 +08 55 24.3 18.8 V 703 – Catalina Sky Survey MPS 224714
2007 11 09.32954 04 36 32.36 +09 05 07.2 18.8 V 703 – Catalina Sky Survey MPS 224714
2007 11 09.33781 04 36 31.89 +09 05 08.2 19.1 V 703 – Catalina Sky Survey MPS 224714
2007 11 09.34607 04 36 31.42 +09 05 09.6 18.8 V 703 – Catalina Sky Survey MPS 224714
2007 11 09.35433 04 36 31.03 +09 05 09.5 18.9 V 703 – Catalina Sky Survey MPS 224714
2007 11 11.26151 04 34 53.17 +09 08 36.6 19.2   704 – Lincoln Laboratory ETS, New Mexico MPS 226763
2007 11 11.27389 04 34 52.44 +09 08 37.3 19.3   704 – Lincoln Laboratory ETS, New Mexico MPS 226763
2007 11 11.29863 04 34 51.14 +09 08 40.4 19.6   704 – Lincoln Laboratory ETS, New Mexico MPS 226763
2007 11 11.31103 04 34 50.48 +09 08 42.1 19.4   704 – Lincoln Laboratory ETS, New Mexico MPS 226763
2007 11 14.25395 04 32 11.48 +09 14 38.8 19.1 r 699 – Lowell Observatory-LONEOS MPS 226763
2007 11 14.27681 04 32 10.13 +09 14 41.2 19.2 r 699 – Lowell Observatory-LONEOS MPS 226763
2007 11 14.29966 04 32 08.82 +09 14 43.8 19.0 r 699 – Lowell Observatory-LONEOS MPS 226763
2007 11 14.32249 04 32 07.47 +09 14 48.0 19.0 r 699 – Lowell Observatory-LONEOS MPS 226763
2007 11 29.38951 04 17 07.02 +09 58 42.2 18.8   704 – Lincoln Laboratory ETS, New Mexico MPS 228954
2007 11 29.40215 04 17 06.35 +09 58 44.5 19.4   704 – Lincoln Laboratory ETS, New Mexico MPS 228954
2007 11 29.41481 04 17 05.44 +09 58 47.9 19.1   704 – Lincoln Laboratory ETS, New Mexico MPS 228954
2007 11 29.42749 04 17 04.65 +09 58 49.8 18.8   704 – Lincoln Laboratory ETS, New Mexico MPS 228954
2007 12 05.22153 04 11 14.96 +10 21 40.1 19.2 r 699 – Lowell Observatory-LONEOS MPS 229736
2007 12 05.24072 04 11 13.73 +10 21 46.0 19.1 r 699 – Lowell Observatory-LONEOS MPS 229736
2007 12 05.25991 04 11 12.62 +10 21 50.3 19.5 r 699 – Lowell Observatory-LONEOS MPS 229736
2007 12 05.27913 04 11 11.38 +10 21 54.9 19.2 r 699 – Lowell Observatory-LONEOS MPS 229736
2007 12 15.29741 04 01 58.54 +11 08 53.0 19.0 V 703 – Catalina Sky Survey MPS 231742
2007 12 15.30392 04 01 58.18 +11 08 55.3 18.9 V 703 – Catalina Sky Survey MPS 231742
2007 12 15.31050 04 01 57.90 +11 08 56.7 18.4 V 703 – Catalina Sky Survey MPS 231742
2007 12 15.31703 04 01 57.50 +11 08 58.7 18.7 V 703 – Catalina Sky Survey MPS 231742
2007 12 31.18722 03 51 36.61 +12 39 27.5 19.2 V 703 – Catalina Sky Survey MPS 232571
2007 12 31.19473 03 51 36.28 +12 39 29.1 19.7 V 703 – Catalina Sky Survey MPS 232571
2007 12 31.20222 03 51 36.18 +12 39 32.8 18.9 V 703 – Catalina Sky Survey MPS 232571
2007 12 31.20975 03 51 35.92 +12 39 35.4 19.8 V 703 – Catalina Sky Survey MPS 232571
2009 01 20.46303 10 45 51.33 +26 30 57.4 21.6 V 703 – Catalina Sky Survey MPS 272345
2009 01 20.47035 10 45 51.08 +26 30 59.8 21.1 V 703 – Catalina Sky Survey MPS 272345
2009 01 20.47767 10 45 50.76 +26 31 02.0 21.1 V 703 – Catalina Sky Survey MPS 272345
2009 01 20.48490 10 45 50.54 +26 31 06.7 20.8 V 703 – Catalina Sky Survey MPS 272345
2010 05 10.362324 14 21 52.346 +05 21 14.50 20.24 i F51 – Pan-STARRS 1, Haleakala MPS 337290
2010 05 10.374428 14 21 51.747 +05 21 14.73 20.09 i F51 – Pan-STARRS 1, Haleakala MPS 337290
2010 05 11.336434 14 21 04.643 +05 21 15.66 20.38 r F51 – Pan-STARRS 1, Haleakala MPS 337290
2010 05 11.348717 14 21 04.022 +05 21 15.60 20.32 r F51 – Pan-STARRS 1, Haleakala MPS 337290
2010 05 12.458289 14 20 10.044 +05 21 04.35 20.60 g F51 – Pan-STARRS 1, Haleakala MPS 337290
2010 05 12.469508 14 20 09.486 +05 21 04.48 20.83 g F51 – Pan-STARRS 1, Haleakala MPS 337290
2011 07 28.56407 21 04 20.38 -33 32 32.1 18.5 V E12 – Siding Spring Survey MPS 387185
2011 07 28.57697 21 04 19.66 -33 32 40.5 18.8 V E12 – Siding Spring Survey MPS 387185
2011 07 28.59038 21 04 18.94 -33 32 48.1 18.7 V E12 – Siding Spring Survey MPS 387185
2011 07 28.60381 21 04 18.22 -33 32 56.9 18.7 V E12 – Siding Spring Survey MPS 387185
2012 11 23.44286 06 04 47.26 +19 15 27.9 19.8 V 691 – Steward Observatory, Kitt Peak-Spacewatch MPS 443359
2012 11 23.46233 06 04 46.36 +19 15 33.1 20.0 V 691 – Steward Observatory, Kitt Peak-Spacewatch MPS 443359
2012 11 23.47752 06 04 45.65 +19 15 37.3 20.0 V 691 – Steward Observatory, Kitt Peak-Spacewatch MPS 443359
2012 11 24.42847 06 04 02.52 +19 20 01.2 19.7 V 691 – Steward Observatory, Kitt Peak-Spacewatch MPS 443359
2012 11 24.44615 06 04 01.69 +19 20 06.0 19.9 V 691 – Steward Observatory, Kitt Peak-Spacewatch MPS 443359
2012 11 24.46947 06 04 00.57 +19 20 12.6 19.6 V 691 – Steward Observatory, Kitt Peak-Spacewatch MPS 443359
2012 12 09.19862 05 50 36.73 +20 32 30.5 19.0 R 926 – Tenagra II Observatory, Nogales MPS 447714
2012 12 09.21110 05 50 35.94 +20 32 34.1 19.0 R 926 – Tenagra II Observatory, Nogales MPS 447714
2012 12 09.22497 05 50 35.05 +20 32 39.2 18.8 R 926 – Tenagra II Observatory, Nogales MPS 447714
